This demonstration page uses our WeatherBlox Daily Observations layout. Learn more.

39.92423, -83.80882

Hourly Observations for September 9, 2020

Temp ( °F °C ) Dew Point ( °F °C ) Humidity (%) Winds ( mph kmh ) Pressure ( in mb ) Visibility ( mi km ) Precip ( " mm )
12:56 am 00:56 Clear 63 17.2 63 17.2 100 100 Calm 30.13 1020 9 14.48406 0 0
1:56 am 01:56 Clear 63 17.2 63 17.2 100 100 Calm 30.13 1020 10 16.0934 0 0
2:56 am 02:56 Clear 62 16.7 62 16.7 100 100 ESE 3 6 30.12 1020 10 16.0934 0 0
3:56 am 03:56 Clear 61 16.1 61 16.1 100 100 Calm 30.12 1020 10 16.0934 0 0
4:56 am 04:56 Clear with Mist and Fog 60 15.6 60 15.6 100 100 E 3 6 30.13 1020 5 8.0467 0 0
5:56 am 05:56 Clear with Mist and Fog 60 15.6 60 15.6 100 100 NE 3 6 30.15 1021 6 9.65604 0 0
6:56 am 06:56 Clear with Mist and Fog 60 15.6 60 15.6 100 100 ENE 3 6 30.17 1022 6 9.65604 0 0
7:56 am 07:56 Sunny 61 16.1 61 16.1 100 100 Calm 30.19 1022 8 12.87472 0 0
8:56 am 08:56 Sunny 68 20 68 20 100 100 Calm 30.19 1023 10 16.0934 0 0
9:56 am 09:56 Sunny 74 23.3 71 21.7 91 91 E 6 9 30.22 1023 10 16.0934 0 0
10:56 am 10:56 Sunny 79 26.1 71 21.7 77 77 ESE 5 7 30.22 1024 10 16.0934 0 0
11:56 am 11:56 Sunny 82 27.8 70 21.1 67 67 ESE 8 13 30.22 1023 10 16.0934 0 0
12:56 pm 12:56 Mostly Sunny 83 28.3 69 20.6 63 63 VRB 5 7 30.21 1023 10 16.0934 0 0
1:56 pm 13:56 Mostly Cloudy 85 29.4 69 20.6 59 59 ESE 7 11 30.2 1023 10 16.0934 0 0
2:56 pm 14:56 Mostly Cloudy 87 30.6 70 21.1 57 57 ESE 8 13 30.18 1022 10 16.0934 0 0
3:56 pm 15:56 Sunny 87 30.6 65 18.3 48 48 VRB 5 7 30.17 1022 10 16.0934 0 0
4:56 pm 16:56 Sunny 86 30 64 17.8 48 48 S 5 7 30.16 1022 10 16.0934 0 0
5:56 pm 17:56 Sunny 84 28.9 66 18.9 55 55 SSE 6 9 30.17 1022 10 16.0934 0 0
6:56 pm 18:56 Sunny 81 27.2 69 20.6 67 67 SSE 3 6 30.19 1022 10 16.0934 0 0
7:56 pm 19:56 Clear 77 25 68 20 74 74 S 5 7 30.2 1023 10 16.0934 0 0
8:56 pm 20:56 Clear 74 23.3 69 20.6 85 85 SSE 6 9 30.21 1023 10 16.0934 0 0
9:56 pm 21:56 Clear 69 20.6 68 20 96 96 SE 3 6 30.22 1023 10 16.0934 0 0
10:56 pm 22:56 Clear 66 18.9 66 18.9 100 100 Calm 30.22 1023 10 16.0934 0 0
11:56 pm 23:56 Clear 66 18.9 66 18.9 100 100 ESE 3 6 30.22 1024 10 16.0934 0 0

Powered by AerisWeather